Preview of NWS' New Version of Forecast
This preview is not operational and should not be used for support decisions.

Regional Weather Roundup (RWR)

Issued by National Weather Service (NWS)

                            
000
ASUS43 KLSX 201057
RWRMO 

WEATHER SUMMARY FOR MISSOURI
NATIONAL WEATHER SERVICE SPRINGFIELD MO
600 AM CDT THU JUN 20 2019

NOTE: "FAIR" INDICATES FEW OR NO CLOUDS BELOW 12,000 FEET WITH NO
       SIGNIFICANT WEATHER AND/OR OBSTRUCTIONS TO VISIBILITY.
       CURRENT SKY AND/OR WEATHER CONDITIONS ARE NOT AVAILABLE FOR
       CHILLICOTHE AND FARMINGTON.

MOZ001>031-035>038-043-044-053-054-201200-
...NORTHERN AND WESTERN MISSOURI...
  
CITY           SKY/WX    TMP DP  RH WIND       PRES   REMARKS
KANSAS CTY INT PTCLDY    62  61  96 S3        29.75R FOG              
LEE'S SUMMIT   CLEAR     60  59  96 SW3       29.76R FOG              
ST JOSEPH      CLEAR     62  61  96 E3        29.75R FOG              
CHILLICOTHE      N/A     61  60  97 CALM      29.76R                  
     
$$
MOZ066>068-077>081-088>096-101>105-201200-
...SOUTHWEST MISSOURI...
  
CITY           SKY/WX    TMP DP  RH WIND       PRES   REMARKS
SPRINGFIELD    PTCLDY    62  60  93 CALM      29.76R                  
JOPLIN         CLEAR     62  61  96 CALM      29.77R                  
               
$$
MOZ032>034-039>042-045>050-055>058-069>072-201200-
...CENTRAL MISSOURI...  
  
CITY           SKY/WX    TMP DP  RH WIND       PRES   REMARKS
COLUMBIA       NOT AVBL                                               
ROLLA          CLOUDY    63  61  93 W3        29.76R                  
SEDALIA        FOG       60  32  34 NW3       29.76R VSB 1/4          
WARRENSBURG    FOG       57  57 100 CALM      29.74S VSB<1/4          
               
$$
MOZ051-052-059>065-201200-
...EAST CENTRAL MISSOURI...
  
CITY           SKY/WX    TMP DP  RH WIND       PRES   REMARKS
ST LOUIS INTL  MOCLDY    65  59  81 NW9       29.71R                  
                   
$$
MOZ072>076-082>087-097>100-106>115-201200-
...SOUTH CENTRAL AND SOUTHEAST MISSOURI...
  
CITY           SKY/WX    TMP DP  RH WIND       PRES   REMARKS
CAPE GIRARDEAU FAIR      69  66  90 SW8       29.69R                  
POPLAR BLUFF   FAIR      69  68  96 SW3       29.71R                  
WEST PLAINS    FOG       64  62  93 SW3       29.77R VSB 1/4          
                                       
$$